Regional Weather Roundup
Issued by NWS

Home | Current Version | Previous Version | Graphics & Text | Print | Product List | Glossary On
Versions: 1 2 3 4 5 6 7 8 9 10 11 12 13 14 15 16 17 18 19 20 21 22 23 24 25 26 27 28 29 30 31 32 33 34 35 36 37 38 39 40 41 42 43 44 45 46 47 48 49 50
000
ASUS43 KLOT 240404
RWRIL

ILLINOIS REGIONAL WEATHER ROUNDUP
NATIONAL WEATHER SERVICE CHICAGO/ROMEOVILLE IL
1100 PM CDT SUN JUL 23 2017

NOTE: "FAIR" INDICATES FEW OR NO CLOUDS BELOW 12,000 FEET WITH NO
SIGNIFICANT WEATHER AND/OR OBSTRUCTIONS TO VISIBILITY.

* THESE STATIONS ARE NOT UNDER NWS QUALITY CONTROL. THEY ALSO MAY NOT
  REPORT WEATHER SUCH AS PRECIPITATION OR FOG.

ILZ001-002-007-009-015-016-024-240500-
NORTHWEST ILLINOIS

CITY           SKY/WX    TMP DP  RH WIND       PRES   REMARKS
MOLINE         CLEAR     74  61  63 NW6       29.90R
STERLING*      PTCLDY    72  65  78 N9        29.89R
SAVANNA*       CLEAR     71  62  74 N6        29.90R
$$

ILZ003-004-008-010-011-017-018-240500-
NORTH CENTRAL ILLINOIS

CITY           SKY/WX    TMP DP  RH WIND       PRES   REMARKS
ROCKFORD       CLEAR     72  63  73 NW6       29.89R
FREEPORT*      CLEAR     68  62  81 NW7       29.91S
ROCHELLE*      CLEAR     70  66  85 N7        29.88S
DE KALB*       CLEAR     70  68  93 NW5       29.88S
$$

ILZ005-006-012>014-019>023-240500-
NORTHEAST ILLINOIS

CITY           SKY/WX    TMP DP  RH WIND       PRES   REMARKS
CHICAGO-OHARE  PTCLDY    72  66  81 N7        29.86R
CHICAGO-MIDWAY PTCLDY    73  65  75 N9        29.85R
AURORA         CLEAR     66  65  96 CALM      29.87R
LANSING*       CLEAR     71  63  74 CALM      29.85S
JOLIET*        CLEAR     70  68  93 CALM      29.86R
WAUKEGAN       CLOUDY    69  65  86 N9G17     29.88R
DUPAGE AIRPORT CLEAR     67  67 100 NW3       29.86R
WHEELING       PTCLDY    70  70 100 NE9       29.88R
MORRIS*        CLEAR     67  65  93 CALM      29.85R
NORTHERLY ISL    N/A     74  63  68 MISG        N/A
$$

LMZ740>746-240500-
SOUTHERN LAKE MICHIGAN

STATION/POSITION SKY/WX   TEMP    WIND        PRES    VSBY  WAVE
                          AIR SEA DIR/SP/G                  HT/PER
                          (F)     (DEG/KT/KT) (MB)    (MI)  (FT/S)
SOUTHERN BUOY              70 71   10/ 19/ 23 1010.2          2/ 3
WILMETTE HARBOR            72 75   20/ 16/ 19   N/A           1
HARRISON CRIB              74     340/ 10/ 11   N/A
BURNHAM HARBOR             73                   N/A
CALUMET HARBOR             73     300/  3/  4 1010.3R
BURNS HARBOR               74     360/ 13/ 15 1011.2R
MICHIGAN CITY              74     350/ 12/ 13   N/A
MICHIGAN CITY 6N           75 75   10/ 10/ 12   N/A           2/ 3
ST. JOSEPH                 74 75   20/ 12/ 14 1010.4R         2/ 3
$$

ILZ025>027-034>036-040-047-049-050-058-095>099-240500-
WEST-CENTRAL ILLINOIS

CITY           SKY/WX    TMP DP  RH WIND       PRES   REMARKS
QUINCY         PTCLDY    76  65  68 CALM      29.94R
GALESBURG*     CLEAR     68  63  85 NW3       29.92R
MACOMB*        CLEAR     69  64  85 N6        29.94R
JACKSONVILLE*  CLOUDY    74  69  83 CALM      29.91R
PITTSFIELD*    MOCLDY    75  70  83 N7        29.93R
$$

ILZ028>032-037-038-041>044-048-051>054-059>061-240500-
CENTRAL ILLINOIS

CITY           SKY/WX    TMP DP  RH WIND       PRES   REMARKS
PONTIAC        CLEAR     70  69  98 NW3       29.88R
BLOOMINGTON    CLEAR     73  65  75 NW7       29.90R
DECATUR        CLOUDY    76  69  79 W3        29.89R
PEORIA         CLEAR     74  64  71 NW5       29.89R
LACON*         CLEAR     70  68  94 CALM      29.88R
LINCOLN*       CLEAR     75  69  81 CALM      29.89R
SPRINGFIELD    CLOUDY    75  71  87 W5        29.90R
TAYLORVILLE    NOT AVBL
$$

ILZ033-039-045-046-055>057-062-063-240500-
EAST-CENTRAL ILLINOIS

CITY           SKY/WX    TMP DP  RH WIND       PRES   REMARKS
CHAMPAIGN      CLOUDY    71  68  90 S3        29.88R
MATTOON        TSTM      74  70  87 S7        29.89S FOG
PARIS*         MOCLDY    68  66  95 W9        29.88R
$$

ILZ079-100>102-240500-
SOUTHWEST ILLINOIS

CITY           SKY/WX    TMP DP  RH WIND       PRES   REMARKS
ALTON          PTCLDY    75  73  91 W3        29.89R
BELLEVILLE     CLEAR     76  72  89 CALM      29.88S
CAHOKIA*       CLEAR     76  69  79 CALM      29.88R
SPARTA*        CLEAR     79  69  71 SW6       29.89S HX  82
$$

ILZ064>066-069>071-074>076-080>082-084>086-088>090-092>094-240500-
SOUTH-CENTRAL ILLINOIS

CITY           SKY/WX    TMP DP  RH WIND       PRES   REMARKS
CARBONDALE     CLEAR     73  73 100 CALM      29.89R
CAIRO*         PTCLDY    77  74  92 S5        29.90R
EFFINGHAM*     MOCLDY    76  75  98 S3        29.89R
MARION         CLEAR     75  75 100 CALM      29.89F
MT. VERNON     CLEAR     71  71 100 CALM      29.88R FOG
CENTRALIA*     CLEAR     74  73  95 CALM      29.88R
SALEM*         CLEAR     75  72  89 CALM      29.89R
METROPOLIS*    PTCLDY    76  73  91 CALM      29.90R
$$

ILZ067-068-072-073-078-083-087-091-240500-
SOUTHEAST ILLINOIS

CITY           SKY/WX    TMP DP  RH WIND       PRES   REMARKS
LAWRENCEVILLE  CLEAR     75  72  90 SW7       29.87R
FLORA*         CLEAR     75  70  84 W5        29.88S
FAIRFIELD*     CLEAR     71  71  99 CALM      29.87S
HARRISBURG*    CLEAR     72  71  98 CALM      29.89R
ROBINSON*      CLEAR     75  73  91 W5        29.87R
CARMI*         CLEAR     71  71  98 CALM      29.88R
$$

ABBREVIATIONS USED IN REMARKS
   TC - TEMPERATURE IN CELSIUS
  WCI - WIND CHILL INDEX
   HX - HEAT INDEX
  VSB - VISIBILITY
$$




USA.gov is the U.S. government's official web portal to all federal, state and local government web resources and services.